Location: Unspecified
(40.7945°N, 0.0000°E)
Time: 08:52:15
(UTC+00:00)

TIGRISAT - Pass Details

Date: 31 August 2019
Orbit: 604 x 690 km, 97.7° (Epoch: 22 October)

Event Time Altitude Azimuth Distance (km) Brightness Sun altitude
Rises 21:31:46 0° 3° (N) 2,997 ? -30.0°
Reaches altitude 10° 21:34:09 10° 355° (N) 2,066 ? -30.3°
Enters shadow 21:38:02 36° 297° (WNW) 1,021 ? -30.8°
